This is the latest recevied weather packets stored in our database for station/object KI6SYE. If no packets are shown the sender has not sent any weather packets the latest 10 day(s).
| Time | Temp. | Humidity | Pressure | Rain* | Wind** | Luminosity | Snow |
|---|---|---|---|---|---|---|---|
| 1788622876 | 21.11° C | 84% | 1013.8 hPa | 0 mm | - | 266 W/m² | - |
| 1788622572 | 21.11° C | 84% | 1014 hPa | 0 mm | - | 252 W/m² | - |
| 1788622267 | 20.56° C | 85% | 1013.8 hPa | 0 mm | - | 259 W/m² | - |
| 1788621962 | 21.11° C | 84% | 1013.8 hPa | 0 mm | - | 264 W/m² | - |
| 1788621656 | 20.56° C | 85% | 1013.7 hPa | 0 mm | - | 244 W/m² | - |
| 1788621351 | 20° C | 86% | 1013.8 hPa | 0 mm | - | 139 W/m² | - |
| 1788621047 | 20° C | 86% | 1013.7 hPa | 0 mm | - | 114 W/m² | - |
| 1788620742 | 20° C | 86% | 1013.8 hPa | 0 mm | - | 101 W/m² | - |
| 1788620440 | 20° C | 86% | 1013.6 hPa | 0 mm | - | 91 W/m² | - |
| 1788620133 | 19.44° C | 87% | 1013.7 hPa | 0 mm | - | 84 W/m² | - |
| 1788619832 | 19.44° C | 87% | 1013.6 hPa | 0 mm | - | 76 W/m² | - |
| 1788619528 | 18.89° C | 88% | 1013.6 hPa | 0 mm | - | 71 W/m² | - |
| 1788619227 | 18.89° C | 89% | 1013.6 hPa | 0 mm | - | 63 W/m² | - |
| 1788618926 | 18.89° C | 91% | 1013.6 hPa | 0 mm | - | 58 W/m² | - |
| 1788618621 | 18.33° C | 92% | 1013.4 hPa | 0 mm | - | 51 W/m² | - |
| 1788618320 | 18.33° C | 93% | 1013.6 hPa | 0 mm | - | 45 W/m² | - |
| 1788618015 | 18.33° C | 94% | 1013.3 hPa | 0 mm | - | 34 W/m² | - |
| 1788617715 | 17.78° C | 94% | 1013.6 hPa | 0 mm | - | 31 W/m² | - |
| 1788617412 | 17.78° C | 95% | 1013.3 hPa | 0 mm | - | 31 W/m² | - |
| 1788617106 | 17.78° C | 95% | 1013.2 hPa | 0 mm | - | 27 W/m² | - |
| 1788616805 | 17.78° C | 95% | 1013.1 hPa | 0 mm | - | 23 W/m² | - |
| 1788616501 | 17.22° C | 95% | 1013.2 hPa | 0 mm | - | 19 W/m² | - |
| 1788616196 | 17.22° C | 95% | 1012.9 hPa | 0 mm | - | 15 W/m² | - |
| 1788615895 | 17.22° C | 95% | 1012.9 hPa | 0 mm | - | 12 W/m² | - |
| 1788615594 | 17.22° C | 95% | 1013 hPa | 0 mm | - | 8 W/m² | - |
* Rain latest hour (hover to see other rain measurements)
** Current wind speed in m/s (hover to see current wind gust speed)